Flag for USA

Past Weather in 41°27'54"N, 81°44'01"W, USA — Yesterday and Last 2 Weeks

Now
72 °F

Mostly cloudy.


Feels Like: 69 °F
Forecast: 83 / 73 °F
Wind: 14 mph from Northwest

Location: Cleveland-Hopkins International Airport

Current Time: Jul 11, 2020 at 7:42:12 am

Latest Report: Jul 11, 2020 at 6:51 am


Visibility: 10 mi

Pressure: 29.70 "Hg

Humidity: 91%

Dew Point: 69 °F

Location of 41°27'54"N, 81°44'01"WLocation

Past Weather in 41°27'54"N, 81°44'01"W — Graph

°F

41°27'54"N, 81°44'01"W Temperature Yesterday

Maximum temperature yesterday: 94 °F (at 1:10 pm)
Minimum temperature yesterday: 73 °F (at 10:51 pm)
Average temperature yesterday: 82 °F

High & Low Weather Summary for the Past Weeks

 TemperatureHumidityPressure
High94 °F (Jul 9, 1:51 pm)97% (Jun 28, 6:51 am)30.05 "Hg (Jun 28, 6:51 am)
Low60 °F (Jul 5, 4:51 am)28% (Jul 6, 1:51 pm)29.66 "Hg (Jul 11, 2:51 am)
Average77 °F66%29.93 "Hg
* Reported Jun 26 6:51 am — Jul 11 6:19 am, 41°27'54"N, 81°44'01"W. Weather by CustomWeather, © 2020

Note: Actual official high and low records may vary slightly from our data, if they occured in-between our weather recording intervals... More about our weather records

41°27'54"N, 81°44'01"W Weather History for the Previous 24 Hours

Scroll right to see more
 ConditionsComfort  
Time TempWeatherWind HumidityBarometerVisibility
6:19 am
Sat, Jul 11
72 °FMostly cloudy.12 mph91%29.72 "Hg10 mi
6:00 am72 °FMostly cloudy.10 mph91%29.72 "Hg10 mi
4:51 am71 °FThunderstorms. Mostly cloudy.17 mph93%29.68 "Hg9 mi
4:06 am72 °FThunderstorms. Mostly cloudy.10 mph91%29.69 "Hg10 mi
3:51 am72 °FThunderstorms. Mostly cloudy.14 mph91%29.66 "Hg10 mi
3:28 am72 °FStrong thunderstorms. Overcast.10 mph93%29.69 "Hg7 mi
3:14 am72 °FThunderstorms. Fog.13 mph93%29.69 "Hg5 mi
2:51 am72 °FThunderstorms. Overcast.13 mph93%29.66 "Hg10 mi
1:51 am72 °FThunderstorms. Mostly cloudy.13 mph93%29.66 "Hg10 mi
1:21 am72 °FThunderstorms. Fog.15 mph93%29.70 "Hg6 mi
1:11 am72 °FThunderstorms. Fog.13 mph93%29.70 "Hg4 mi
12:51 am72 °FThunderstorms. Fog.10 mph93%29.68 "Hg4 mi
12:31 am72 °FRain. Fog.6 mph93%29.72 "Hg2 mi
11:51 pm
Fri, Jul 10
73 °FPartly cloudy.10 mph88%29.70 "Hg10 mi
10:51 pm73 °FPartly cloudy.10 mph88%29.71 "Hg10 mi
9:51 pm74 °FLight rain. Partly cloudy.10 mph85%29.72 "Hg10 mi
8:51 pm79 °FBroken clouds.8 mph67%29.71 "Hg10 mi
7:51 pm80 °FBroken clouds.7 mph74%29.72 "Hg10 mi
6:51 pm78 °FPartly sunny.7 mph76%29.76 "Hg10 mi
5:51 pm80 °FBroken clouds.9 mph71%29.75 "Hg10 mi
4:51 pm79 °FCloudy.10 mph74%29.77 "Hg10 mi
4:08 pm86 °FThunderstorms. Broken clouds.18 mph55%29.77 "Hg10 mi
2:51 pm92 °FScattered clouds.14 mph44%29.73 "Hg10 mi
1:51 pm93 °FScattered clouds.10 mph44%29.75 "Hg10 mi
1:10 pm94 °FThunderstorms. Scattered clouds.14 mph44%29.79 "Hg10 mi
12:51 pm92 °FScattered clouds.14 mph47%29.78 "Hg10 mi
11:51 am92 °FScattered clouds.9 mph49%29.81 "Hg10 mi
10:51 am90 °FPassing clouds.10 mph52%29.82 "Hg10 mi
9:51 am88 °FPassing clouds.12 mph55%29.83 "Hg10 mi
8:51 am84 °FPassing clouds.8 mph65%29.84 "Hg10 mi
7:51 am80 °FPassing clouds.8 mph69%29.84 "Hg9 mi
Weather by CustomWeather, © 2020

See weather overview